Flag for U.S.A. Weather past 2 weeks in Panama City, Florida, U.S.A.

Now
75 °F

Clear.


Feels Like: 73 °F
Forecast: 77 / 89 °F
Wind: 3 mph from Southeast

Location: Tyndall Air Force Base

Current Time: Sep 2, 2014 at 5:03:21 AM

Latest Report: Sep 2, 2014 at 4:03 AM


Visibility: 10 mi

Pressure: 30.03 "Hg

Humidity: 100%

Dew point: 75 °F

Location of Panama CityLocation

Historic Weather in Panama City — Graph

°F

Panama City temperature yesterday

Maximum temperature yesterday: 90 °F (at 12:59 PM)
Minimum temperature yesterday: 75 °F (at 3:58 AM)
Average temperature yesterday: 82 °F

Past Weeks' High & Low Weather Summary

 TemperatureHumidityPressure
High97 °F (Aug 24, 12:58 PM)100% (Aug 21, 6:58 AM)30.17 "Hg (Aug 21, 6:58 AM)
Low72 °F (Aug 28, 6:03 AM)41% (Aug 27, 2:58 PM)29.81 "Hg (Aug 24, 3:58 PM)
Average83 °F81%30.03 "Hg
* Reported Aug 18 4:58 AM — Sep 2 4:03 AM, Panama City, Weather by CustomWeather, © 2014

Note: Actual official high and low records may vary slightly from our data, if they occured in-between our weather recording intervals... More about our weather records

Advertising

Panama City weather history for previous 24 hours

 ConditionsComfort  
Time TempWeatherWind HumidityBarometerVisibility
4:03 AM
Sep 2
75 °FClear.3 mph100%30.03 "Hg10 mi
3:58 AM75 °FClear.5 mph100%30.04 "Hg8 mi
3:03 AM75 °FFog.No wind100%30.03 "Hg1 mi
2:58 AM75 °FFog.No wind100%30.04 "Hg1 mi
1:58 AM77 °FClear.3 mph100%30.06 "Hg8 mi
1:03 AM77 °FFog.No wind100%30.07 "Hg3 mi
12:58 AM76 °FFog.No wind100%30.08 "Hg2 mi
11:58 PM
Sep 1
78 °FClear.2 mph100%30.09 "Hg9 mi
10:58 PM78 °FClear.No wind99%30.11 "Hg10 mi
9:58 PM79 °FClear.No wind93%30.11 "Hg10 mi
9:03 PM82 °FPartly cloudy.5 mph84%30.10 "Hg10 mi
8:58 PM81 °FPassing clouds.5 mph89%30.11 "Hg10 mi
7:58 PM82 °FClear.3 mph86%30.09 "Hg10 mi
6:58 PM85 °FSunny.7 mph78%30.06 "Hg10 mi
5:58 PM87 °FSunny.6 mph71%30.06 "Hg10 mi
4:58 PM87 °FSunny.5 mph70%30.07 "Hg10 mi
3:58 PM80 °FThundershowers. Partly sunny.10 mph79%30.09 "Hg10 mi
2:58 PM89 °FThundershowers. Passing clouds.12 mph68%30.09 "Hg10 mi
2:03 PM86 °FPartly sunny.6 mph75%30.09 "Hg10 mi
1:58 PM86 °FBroken clouds.5 mph74%30.10 "Hg10 mi
12:59 PM90 °FThunderstorms. Sunny.10 mph67%30.11 "Hg10 mi
11:58 AM89 °FSunny.8 mph61%30.14 "Hg10 mi
10:58 AM88 °FScattered clouds.8 mph71%30.14 "Hg10 mi
9:58 AM87 °FScattered clouds.6 mph77%30.14 "Hg10 mi
8:58 AM83 °FSunny.7 mph90%30.13 "Hg10 mi
7:58 AM80 °FSunny.3 mph100%30.12 "Hg10 mi
6:58 AM76 °FSunny.3 mph100%30.10 "Hg10 mi
6:03 AM77 °FFog.2 mph100%30.08 "Hg6 mi
5:03 AM77 °FFog.2 mph100%30.06 "Hg3 mi
Weather by CustomWeather, © 2014

See weather overviewHow to use our weather pages